Miscellaneous Local Product
Issued by NWS Hastings, NE

Home | Current Version | Previous Version | Graphics & Text | Print | Product List | Glossary On
Versions: 1 2 3 4 5 6 7 8 9 10 11 12 13 14 15 16 17 18 19 20 21 22 23 24 25 26 27 28 29 30 31 32 33 34 35 36 37 38 39 40 41 42 43 44 45 46 47 48 49 50
734
AXUS43 KGID 230002
MISGRI

GID CWA HOURLY WEATHER ROUNDUP
NATIONAL WEATHER SERVICE HASTINGS NE
700 PM CDT SUN APR 22 2018

NOTE: "FAIR" INDICATES FEW OR NO CLOUDS BELOW 12,000 FEET WITH NO
SIGNIFICANT WEATHER AND/OR OBSTRUCTIONS TO VISIBILITY.

...SOUTH CENTRAL NEBRASKA...

CITY           SKY/WX    TMP DP  RH WIND       PRES   REMARKS
GRAND ISLAND   SUNNY     63  36  36 SE14      30.14S
KEARNEY        PTSUNNY   62  36  37 E6        30.15S
HASTINGS       SUNNY     61  35  37 SE14      30.14S
ORD            SUNNY     62  33  33 SE6       30.14S
YORK             N/A     63  36  36 CALM      30.15S
AURORA         CLOUDY    64  32  30 SE12      30.14S
LEXINGTON      MOSUNNY   58  38  45 CALM      30.16S
HOLDREGE       CLOUDY    60  39  46 E3        30.15S
HEBRON         CLOUDY    62  35  36 E5        30.14S

...NEBRASKA PANHANDLE...

CITY           SKY/WX    TMP DP  RH WIND       PRES   REMARKS
CHADRON        SUNNY     67  41  38 E7        30.05S
ALLIANCE       SUNNY     59  39  47 SE14      30.09S
SCOTTSBLUFF    SUNNY     62  38  40 SE7       30.08F
SIDNEY         SUNNY     57  32  38 SE14      30.12S

...WESTERN AND NORTH CENTRAL NEBRASKA...

CITY           SKY/WX    TMP DP  RH WIND       PRES   REMARKS
VALENTINE      MOSUNNY   62  36  37 S12G21    30.12F
AINSWORTH      MOSUNNY   58  39  49 S9        30.15S
ONEILL         SUNNY     65  32  29 S6        30.16S
BROKEN BOW     SUNNY     59  37  44 S3        30.15S
IMPERIAL       SUNNY     55  35  47 E7        30.15F
NORTH PLATTE   MOSUNNY   55  39  54 S5        30.16S
MCCOOK         CLOUDY    59  39  47 E7        30.15S

...EASTERN NEBRASKA...

CITY           SKY/WX    TMP DP  RH WIND       PRES   REMARKS
NORFOLK        SUNNY     65  31  28 SE9       30.14S
SO SIOUX CITY  SUNNY     65  33  30 E14       30.15F
TEKAMAH        SUNNY     67  30  25 NE12      30.13F
COLUMBUS       PTSUNNY   66  34  30 E10       30.15S
ALBION         SUNNY     65  35  32 SE7       30.15S
OMAHA EPPLEY   PTSUNNY   69  31  24 E14       30.13S
MILLARD        CLOUDY    69  34  27 E3        30.13S
LINCOLN        CLOUDY    66  33  29 E6        30.14S
NEBRASKA CITY  CLOUDY    69  36  30 NE13      30.11S
BEATRICE       CLOUDY    68  36  31 NE9       30.12S
FALLS CITY     MOSUNNY   67  37  33 E15G21    30.09R

...NORTHERN KANSAS...

CITY           SKY/WX    TMP DP  RH WIND       PRES   REMARKS
GOODLAND       SUNNY     55  35  47 NE3       30.14F
HILL CITY      PTSUNNY   61  40  45 NE7       30.14F
NORTON         PTCLDY    61  37  41 CALM      30.14F
PHILLIPSBURG   MOSUNNY   64  36  34 NE5       30.14S
SMITH CENTER   SUNNY     63  36  36 E13       30.14R
BELOIT         CLOUDY    55  39  54 NE8       30.13S
HAYS           PTSUNNY   61  37  41 E18       30.12S
RUSSELL        PTSUNNY   61  42  49 NE9       30.12S
CONCORDIA      MOSUNNY   59  39  47 NE6       30.13S
SALINA         CLOUDY    62  42  47 N14       30.11F
TOPEKA         PTSUNNY   67  43  41 E14G22    30.06S



USA.gov is the U.S. government's official web portal to all federal, state and local government web resources and services.